Orbital Elements at Epoch 2459200.5 (2020-Dec-17.0) TDB
Reference: JPL 18 (heliocentric ecliptic J2000)
Element | Value | Uncertainty (1-sigma) | Units |
e | .2579519885806561 | 4.4616e-08 | |
a | 2.633496518514988 | 2.3127e-08 | au |
q | 1.954180854643813 | 1.2315e-07 | au |
i | 10.58231539393103 | 6.1025e-06 | deg |
node | 242.8063986257991 | 2.7689e-05 | deg |
peri | 241.2712056647587 | 3.1891e-05 | deg |
M | 280.0373478123674 | 2.1434e-05 | deg |
tp | 2459547.222670699514 (2021-Nov-28.72267070) | 9.6634e-05 | TDB |
period | 1560.980758353713 4.27 | 2.0562e-05 5.63e-08 | d yr |
n | .2306242393273789 | 3.0379e-09 | deg/d |
Q | 3.312812182386164 | 2.9092e-08 | au |
|
| | Orbit Determination Parameters
Additional Information
|